Starlink 30088

operational
NORAD ID: 57462 Int'l Des: 2023-107 Owner: SPXS Country: US Constellation: starlink
LEOCIRCULAR

Starlink 30088について

説明を読み込み中...

リアルタイム位置

3D地球を読み込み中...

次回通過

高度履歴

Altitude vs Time

uPlot chart will show altitude changes over time

軌道要素

1 57462U 23107F 25259.26059045 .00000593 00000-0 58928-4 0 9994
2 57462 43.0019 206.8578 0000975 263.2680 96.8051 15.02536695118873
Epoch: Sep 16, 2025 • Age: 19 hours

現在のステータス

高度 561.1 km
速度 7.58 km/s
衛星直下点 -12.45°S, 172.91°E
打ち上げ日 Jul 28, 2023
運用期間 2.1 years
タイプ internet

技術仕様

分類 Payload
質量 730.00 kg
乾燥質量 700.00 kg
総質量 730.00 kg
長さ 0.30 m
直径 4.10 m
スパン 29.00 m
形状 Box + pan
製造者 SPXS
バスタイプ Starlink V2M
フェーズステータス In Orbit
所有者/国 SPXS/US

大規模コンステレーション

Loading constellations...